Location: Newark
(25.4800°N, 85.7200°E)
Time: 21:42:06
(UTC+00:00)

Vanguard 1 Rocket - Pass Details

Date: 27 August 2019
Orbit: 650 x 4226 km, 34.3° (Epoch: 23 October)

Event Time Altitude Azimuth Distance (km) Brightness Sun altitude
Rises 17:32:44 0° 241° (WSW) 4,439 - -52.8°
Reaches altitude 10° 17:36:20 10° 241° (WSW) 3,016 - -53.1°
Maximum altitude 17:42:56 81° 155° (SSE) 795 - -53.5°
Drops below altitude 10° 17:47:26 10° 67° (ENE) 2,080 - -53.7°
Sets 17:49:30 0° 66° (ENE) 2,954 - -53.8°
